Time,TemperatureF,DewpointF,PressureIn,WindDirection,WindDirectionDegrees,WindSpeedMPH,WindSpeedGustMPH,Humidity,HourlyPrecipIn,Conditions,Clouds,dailyrainin,SoftwareType,DateUTC
2013-04-24 00:03:00,58.0,41.0,29.98,SW,233,0.0,3.0,53,0.00,,,0.00,,2013-04-24 04:03:00,
2013-04-24 00:12:00,58.0,41.0,29.98,SW,233,0.0,3.0,53,0.00,,,0.00,,2013-04-24 04:12:00,
2013-04-24 00:23:00,58.0,42.0,29.98,SW,233,0.0,0.0,55,0.00,,,0.00,,2013-04-24 04:23:00,
2013-04-24 00:33:00,57.0,41.0,29.98,SW,233,0.0,0.0,56,0.00,,,0.00,,2013-04-24 04:33:00,
2013-04-24 00:43:00,57.0,41.0,29.98,SW,233,0.0,0.0,56,0.00,,,0.00,,2013-04-24 04:43:00,
2013-04-24 00:53:00,57.0,41.0,29.97,SW,233,0.0,0.0,56,0.00,,,0.00,,2013-04-24 04:53:00,
2013-04-24 01:02:00,57.0,41.0,29.97,SW,233,0.0,0.0,56,0.00,,,0.00,,2013-04-24 05:02:00,
2013-04-24 01:12:00,57.0,41.0,29.97,SW,233,0.0,0.0,56,0.00,,,0.00,,2013-04-24 05:12:00,
2013-04-24 01:22:00,57.0,42.0,29.96,SW,233,0.0,0.0,57,0.00,,,0.00,,2013-04-24 05:22:00,
2013-04-24 01:32:00,56.0,41.0,29.95,SW,233,0.0,0.0,57,0.00,,,0.00,,2013-04-24 05:32:00,
2013-04-24 01:42:00,56.0,41.0,29.95,SW,233,0.0,0.0,57,0.00,,,0.00,,2013-04-24 05:42:00,
2013-04-24 01:52:00,56.0,41.0,29.95,SW,233,0.0,0.0,57,0.00,,,0.00,,2013-04-24 05:52:00,
2013-04-24 02:02:00,56.0,41.0,29.94,SW,233,0.0,0.0,57,0.00,,,0.00,,2013-04-24 06:02:00,
2013-04-24 02:12:00,56.0,41.0,29.94,SW,233,0.0,0.0,57,0.00,,,0.00,,2013-04-24 06:12:00,
2013-04-24 02:22:00,56.0,41.0,29.94,SW,233,0.0,0.0,57,0.00,,,0.00,,2013-04-24 06:22:00,
2013-04-24 02:33:00,58.0,42.0,29.94,SW,233,0.0,0.0,55,0.00,,,0.00,,2013-04-24 06:33:00,
2013-04-24 02:42:00,58.0,42.0,29.94,SW,233,0.0,0.0,55,0.00,,,0.00,,2013-04-24 06:42:00,
2013-04-24 02:52:00,58.0,41.0,29.93,SW,233,0.0,0.0,54,0.00,,,0.00,,2013-04-24 06:52:00,
2013-04-24 03:02:00,58.0,41.0,29.93,SSE,167,0.0,0.0,54,0.00,,,0.00,,2013-04-24 07:02:00,
2013-04-24 03:11:00,58.0,41.0,29.93,SSE,167,0.0,0.0,54,0.00,,,0.00,,2013-04-24 07:11:00,
2013-04-24 03:22:00,59.0,41.0,29.93,SSE,167,0.0,0.0,52,0.00,,,0.00,,2013-04-24 07:22:00,
2013-04-24 03:32:00,59.0,41.0,29.93,SSE,156,1.0,0.0,52,0.00,,,0.00,,2013-04-24 07:32:00,
2013-04-24 03:42:00,59.0,41.0,29.93,SSE,156,1.0,0.0,52,0.00,,,0.00,,2013-04-24 07:42:00,
2013-04-24 03:52:00,60.0,42.0,29.93,SSE,156,0.0,0.0,51,0.00,,,0.00,,2013-04-24 07:52:00,
2013-04-24 04:02:00,60.0,42.0,29.93,SSE,165,0.0,0.0,51,0.00,,,0.00,,2013-04-24 08:02:00,
2013-04-24 04:12:00,60.0,42.0,29.93,SSE,165,0.0,0.0,51,0.00,,,0.00,,2013-04-24 08:12:00,
2013-04-24 04:21:00,60.0,42.0,29.93,SSW,211,1.0,0.0,51,0.00,,,0.00,,2013-04-24 08:21:00,
2013-04-24 04:33:00,60.0,42.0,29.94,SE,146,0.0,0.0,51,0.00,,,0.00,,2013-04-24 08:33:00,
2013-04-24 04:42:00,60.0,42.0,29.94,SE,146,0.0,0.0,51,0.00,,,0.00,,2013-04-24 08:42:00,
2013-04-24 04:52:00,60.0,42.0,29.93,SE,146,0.0,0.0,52,0.00,,,0.00,,2013-04-24 08:52:00,
2013-04-24 05:02:00,60.0,42.0,29.93,South,181,0.0,5.0,51,0.00,,,0.00,,2013-04-24 09:02:00,
2013-04-24 05:11:00,60.0,42.0,29.93,South,181,0.0,5.0,51,0.00,,,0.00,,2013-04-24 09:11:00,
2013-04-24 05:21:00,60.0,42.0,29.93,SSW,197,0.0,6.0,51,0.00,,,0.00,,2013-04-24 09:21:00,
2013-04-24 05:33:00,60.0,42.0,29.93,SSW,197,0.0,6.0,51,0.00,,,0.00,,2013-04-24 09:33:00,
2013-04-24 05:42:00,60.0,42.0,29.93,SSW,197,0.0,6.0,51,0.00,,,0.00,,2013-04-24 09:42:00,
2013-04-24 05:53:00,60.0,42.0,29.93,SSE,162,0.0,0.0,52,0.00,,,0.00,,2013-04-24 09:53:00,
2013-04-24 06:02:00,60.0,42.0,29.93,SSE,158,0.0,0.0,52,0.00,,,0.00,,2013-04-24 10:02:00,
2013-04-24 06:12:00,60.0,42.0,29.93,SSE,158,0.0,0.0,52,0.00,,,0.00,,2013-04-24 10:12:00,
2013-04-24 06:22:00,59.0,42.0,29.93,South,180,1.0,0.0,53,0.00,,,0.00,,2013-04-24 10:22:00,
2013-04-24 06:33:00,59.0,41.0,29.93,South,179,0.0,0.0,52,0.00,,,0.00,,2013-04-24 10:33:00,
2013-04-24 06:42:00,59.0,41.0,29.93,South,179,0.0,0.0,52,0.00,,,0.00,,2013-04-24 10:42:00,
2013-04-24 06:52:00,60.0,42.0,29.93,South,181,0.0,7.0,51,0.00,,,0.00,,2013-04-24 10:52:00,
2013-04-24 07:02:00,61.0,43.0,29.92,South,174,1.0,0.0,51,0.00,,,0.00,,2013-04-24 11:02:00,
2013-04-24 07:11:00,61.0,43.0,29.92,SW,219,0.0,0.0,52,0.00,,,0.00,,2013-04-24 11:11:00,
2013-04-24 07:21:00,61.0,43.0,29.92,SW,219,0.0,0.0,52,0.00,,,0.00,,2013-04-24 11:21:00,
2013-04-24 07:32:00,61.0,43.0,29.92,SW,219,0.0,0.0,52,0.00,,,0.00,,2013-04-24 11:32:00,
2013-04-24 07:42:00,61.0,43.0,29.92,SW,219,0.0,0.0,52,0.00,,,0.00,,2013-04-24 11:42:00,
2013-04-24 07:52:00,62.0,44.0,29.92,SE,124,2.0,0.0,52,0.00,,,0.00,,2013-04-24 11:52:00,
2013-04-24 08:02:00,62.0,44.0,29.92,South,190,2.0,0.0,52,0.00,,,0.00,,2013-04-24 12:02:00,
2013-04-24 08:12:00,62.0,44.0,29.91,SSW,212,1.0,0.0,52,0.00,,,0.00,,2013-04-24 12:12:00,
2013-04-24 08:22:00,62.0,44.0,29.91,SSW,212,1.0,0.0,52,0.00,,,0.00,,2013-04-24 12:22:00,
2013-04-24 08:32:00,63.0,45.0,29.91,SW,214,6.0,0.0,52,0.00,,,0.00,,2013-04-24 12:32:00,
2013-04-24 08:42:00,63.0,45.0,29.91,SW,214,6.0,0.0,52,0.00,,,0.00,,2013-04-24 12:42:00,
2013-04-24 08:52:00,63.0,45.0,29.91,South,191,2.0,0.0,52,0.00,,,0.00,,2013-04-24 12:52:00,
2013-04-24 09:01:00,63.0,45.0,29.91,South,191,2.0,0.0,52,0.00,,,0.00,,2013-04-24 13:01:00,
2013-04-24 09:12:00,63.0,45.0,29.91,South,191,2.0,0.0,52,0.00,,,0.00,,2013-04-24 13:12:00,
2013-04-24 09:22:00,64.0,45.0,29.90,SW,221,0.0,4.0,51,0.00,,,0.00,,2013-04-24 13:22:00,
2013-04-24 09:32:00,65.0,47.0,29.90,West,263,7.0,7.0,52,0.00,,,0.00,,2013-04-24 13:32:00,
2013-04-24 09:41:00,65.0,47.0,29.90,West,263,7.0,7.0,52,0.00,,,0.00,,2013-04-24 13:41:00,
2013-04-24 09:52:00,66.0,47.0,29.89,SSW,193,5.0,5.0,50,0.00,,,0.00,,2013-04-24 13:52:00,
2013-04-24 10:01:00,66.0,47.0,29.88,SW,225,7.0,0.0,50,0.00,,,0.00,,2013-04-24 14:01:00,
2013-04-24 10:11:00,66.0,47.0,29.88,SW,225,7.0,0.0,50,0.00,,,0.00,,2013-04-24 14:11:00,
2013-04-24 10:21:00,68.0,48.0,29.88,WSW,239,5.0,8.0,48,0.00,,,0.00,,2013-04-24 14:21:00,
2013-04-24 10:32:00,68.0,48.0,29.88,SSW,203,6.0,6.0,48,0.00,,,0.00,,2013-04-24 14:32:00,
2013-04-24 10:42:00,68.0,48.0,29.88,SSW,203,6.0,6.0,48,0.00,,,0.00,,2013-04-24 14:42:00,
2013-04-24 10:52:00,69.0,48.0,29.87,South,188,4.0,0.0,48,0.00,,,0.00,,2013-04-24 14:52:00,
2013-04-24 11:01:00,69.0,48.0,29.87,SSW,204,4.0,11.0,48,0.00,,,0.00,,2013-04-24 15:01:00,
2013-04-24 11:11:00,69.0,48.0,29.87,SSW,204,4.0,11.0,48,0.00,,,0.00,,2013-04-24 15:11:00,
2013-04-24 11:22:00,70.0,48.0,29.85,WSW,246,5.0,0.0,46,0.00,,,0.00,,2013-04-24 15:22:00,
2013-04-24 11:33:00,71.0,49.0,29.85,South,172,9.0,9.0,46,0.00,,,0.00,,2013-04-24 15:33:00,
2013-04-24 11:43:00,71.0,49.0,29.85,South,172,9.0,9.0,46,0.00,,,0.00,,2013-04-24 15:43:00,
2013-04-24 11:53:00,71.0,50.0,29.85,NNW,328,1.0,0.0,47,0.00,,,0.00,,2013-04-24 15:53:00,
2013-04-24 12:03:00,73.0,50.0,29.85,SSW,208,6.0,6.0,44,0.00,,,0.00,,2013-04-24 16:03:00,
2013-04-24 12:12:00,73.0,50.0,29.85,SSW,208,6.0,6.0,44,0.00,,,0.00,,2013-04-24 16:12:00,
2013-04-24 12:23:00,73.0,50.0,29.85,SSW,208,6.0,6.0,44,0.00,,,0.00,,2013-04-24 16:23:00,
2013-04-24 12:32:00,72.0,51.0,29.83,South,181,7.0,7.0,47,0.00,,,0.00,,2013-04-24 16:32:00,
2013-04-24 12:42:00,72.0,49.0,29.80,WSW,257,3.0,0.0,45,0.00,,,0.00,,2013-04-24 16:42:00,
2013-04-24 12:53:00,72.0,49.0,29.80,WSW,257,3.0,0.0,45,0.00,,,0.00,,2013-04-24 16:53:00,
2013-04-24 13:02:00,73.0,50.0,29.82,SW,221,3.0,4.0,45,0.00,,,0.00,,2013-04-24 17:02:00,
2013-04-24 13:12:00,73.0,50.0,29.82,SW,221,3.0,4.0,45,0.00,,,0.00,,2013-04-24 17:12:00,
2013-04-24 13:22:00,72.0,50.0,29.83,SW,226,9.0,12.0,46,0.00,,,0.00,,2013-04-24 17:22:00,
2013-04-24 13:32:00,72.0,51.0,29.81,SW,228,1.0,3.0,47,0.00,,,0.00,,2013-04-24 17:32:00,
2013-04-24 13:42:00,72.0,51.0,29.81,SW,228,1.0,3.0,47,0.00,,,0.00,,2013-04-24 17:42:00,
2013-04-24 13:51:00,73.0,50.0,29.80,WSW,240,0.0,6.0,45,0.00,,,0.00,,2013-04-24 17:51:00,
2013-04-24 14:02:00,72.0,51.0,29.80,West,262,2.0,0.0,47,0.00,,,0.00,,2013-04-24 18:02:00,
2013-04-24 14:12:00,72.0,51.0,29.80,West,262,2.0,0.0,47,0.00,,,0.00,,2013-04-24 18:12:00,
2013-04-24 14:22:00,73.0,50.0,29.78,WSW,249,4.0,4.0,45,0.00,,,0.00,,2013-04-24 18:22:00,
2013-04-24 14:33:00,74.0,51.0,29.77,SSW,198,2.0,9.0,44,0.00,,,0.00,,2013-04-24 18:33:00,
2013-04-24 14:42:00,74.0,51.0,29.77,SSW,198,2.0,9.0,44,0.00,,,0.00,,2013-04-24 18:42:00,
2013-04-24 14:52:00,73.0,51.0,29.77,North,4,0.0,0.0,46,0.00,,,0.00,,2013-04-24 18:52:00,
2013-04-24 15:02:00,73.0,52.0,29.78,West,260,1.0,5.0,47,0.00,,,0.00,,2013-04-24 19:02:00,
2013-04-24 15:11:00,73.0,52.0,29.78,West,260,1.0,5.0,47,0.00,,,0.00,,2013-04-24 19:11:00,
2013-04-24 15:22:00,72.0,52.0,29.80,SW,217,12.0,12.0,50,0.00,,,0.00,,2013-04-24 19:22:00,
2013-04-24 15:32:00,61.0,57.0,29.83,North,359,1.0,0.0,87,0.00,,,0.00,,2013-04-24 19:32:00,
2013-04-24 15:42:00,61.0,57.0,29.83,North,359,1.0,0.0,87,0.00,,,0.00,,2013-04-24 19:42:00,
2013-04-24 15:52:00,60.0,60.0,29.82,South,169,0.0,0.0,99,0.00,,,0.00,,2013-04-24 19:52:00,
2013-04-24 16:02:00,61.0,60.0,29.82,South,169,0.0,0.0,98,0.00,,,0.00,,2013-04-24 20:02:00,
2013-04-24 16:11:00,61.0,60.0,29.82,South,169,0.0,0.0,98,0.00,,,0.00,,2013-04-24 20:11:00,
2013-04-24 16:22:00,61.0,60.0,29.82,South,169,0.0,0.0,98,0.00,,,0.00,,2013-04-24 20:22:00,
2013-04-24 16:32:00,61.0,60.0,29.83,West,263,0.0,0.0,97,0.12,,,0.00,,2013-04-24 20:32:00,
2013-04-24 16:42:00,61.0,60.0,29.83,West,263,0.0,0.0,97,0.12,,,0.00,,2013-04-24 20:42:00,
2013-04-24 16:52:00,61.0,59.0,29.83,SSW,201,6.0,6.0,93,0.12,,,0.00,,2013-04-24 20:52:00,
2013-04-24 17:02:00,60.0,58.0,29.83,SSW,208,7.0,7.0,93,0.12,,,0.00,,2013-04-24 21:02:00,
2013-04-24 17:11:00,60.0,58.0,29.83,SSW,208,7.0,7.0,93,0.12,,,0.00,,2013-04-24 21:11:00,
2013-04-24 17:22:00,60.0,59.0,29.82,SSW,203,0.0,0.0,95,0.02,,,0.00,,2013-04-24 21:22:00,
2013-04-24 17:33:00,60.0,57.0,29.83,SSE,159,8.0,0.0,91,0.02,,,0.00,,2013-04-24 21:33:00,
2013-04-24 17:42:00,60.0,57.0,29.83,SSE,159,8.0,0.0,91,0.02,,,0.00,,2013-04-24 21:42:00,
2013-04-24 17:53:00,60.0,57.0,29.83,WSW,253,3.0,0.0,91,0.02,,,0.00,,2013-04-24 21:53:00,
2013-04-24 18:03:00,61.0,57.0,29.83,West,269,5.0,0.0,86,0.02,,,0.00,,2013-04-24 22:03:00,
2013-04-24 18:12:00,61.0,57.0,29.83,West,269,5.0,0.0,86,0.02,,,0.00,,2013-04-24 22:12:00,
2013-04-24 18:22:00,61.0,57.0,29.83,SW,228,8.0,8.0,86,0.01,,,0.00,,2013-04-24 22:22:00,
2013-04-24 18:33:00,61.0,56.0,29.84,South,191,7.0,9.0,84,0.01,,,0.00,,2013-04-24 22:33:00,
2013-04-24 18:42:00,61.0,56.0,29.84,South,191,7.0,9.0,84,0.01,,,0.00,,2013-04-24 22:42:00,
2013-04-24 18:52:00,61.0,56.0,29.84,South,191,7.0,9.0,84,0.01,,,0.00,,2013-04-24 22:52:00,
2013-04-24 19:02:00,60.0,55.0,29.86,SW,218,8.0,9.0,85,0.01,,,0.00,,2013-04-24 23:02:00,
2013-04-24 19:12:00,60.0,55.0,29.86,SW,218,8.0,9.0,85,0.01,,,0.00,,2013-04-24 23:12:00,
2013-04-24 19:22:00,60.0,55.0,29.86,SW,218,8.0,9.0,85,0.01,,,0.00,,2013-04-24 23:22:00,
2013-04-24 19:32:00,52.0,50.0,29.94,West,262,2.0,0.0,93,0.05,,,0.00,,2013-04-24 23:32:00,
2013-04-24 19:42:00,52.0,50.0,29.94,West,262,2.0,0.0,93,0.05,,,0.00,,2013-04-24 23:42:00,
2013-04-24 19:52:00,51.0,49.0,29.94,WSW,242,9.0,9.0,94,0.05,,,0.00,,2013-04-24 23:52:00,
2013-04-24 20:02:00,50.0,47.0,29.97,SW,236,6.0,0.0,91,0.05,,,0.00,,2013-04-25 00:02:00,
2013-04-24 20:12:00,50.0,47.0,29.97,SW,236,6.0,0.0,91,0.05,,,0.00,,2013-04-25 00:12:00,
2013-04-24 20:22:00,49.0,47.0,30.00,NW,316,2.0,0.0,93,0.00,,,0.00,,2013-04-25 00:22:00,
2013-04-24 20:32:00,47.0,46.0,30.02,North,10,2.0,3.0,96,0.00,,,0.00,,2013-04-25 00:32:00,
2013-04-24 20:42:00,47.0,46.0,30.02,North,10,2.0,3.0,96,0.00,,,0.00,,2013-04-25 00:42:00,
2013-04-24 20:52:00,47.0,46.0,30.04,SW,221,0.0,0.0,96,0.00,,,0.00,,2013-04-25 00:52:00,
2013-04-24 21:01:00,46.0,42.0,30.06,SSW,203,3.0,0.0,85,0.00,,,0.00,,2013-04-25 01:01:00,
2013-04-24 21:11:00,46.0,42.0,30.06,SSW,203,3.0,0.0,85,0.00,,,0.00,,2013-04-25 01:11:00,
2013-04-24 21:23:00,46.0,41.0,30.07,SW,222,3.0,8.0,84,0.01,,,0.00,,2013-04-25 01:23:00,
2013-04-24 21:32:00,46.0,41.0,30.07,SW,222,3.0,8.0,84,0.01,,,0.00,,2013-04-25 01:32:00,
2013-04-24 21:42:00,46.0,41.0,30.07,SW,222,3.0,8.0,84,0.01,,,0.00,,2013-04-25 01:42:00,
2013-04-24 21:52:00,45.0,40.0,30.11,SW,226,3.0,7.0,83,0.01,,,0.00,,2013-04-25 01:52:00,
2013-04-24 22:02:00,45.0,40.0,30.12,West,264,0.0,0.0,83,0.01,,,0.00,,2013-04-25 02:02:00,
2013-04-24 22:11:00,45.0,40.0,30.12,West,264,0.0,0.0,83,0.01,,,0.00,,2013-04-25 02:11:00,
2013-04-24 22:22:00,45.0,40.0,30.12,West,264,0.0,0.0,83,0.01,,,0.00,,2013-04-25 02:22:00,
2013-04-24 22:32:00,43.0,41.0,30.15,North,10,0.0,0.0,92,0.00,,,0.00,,2013-04-25 02:32:00,
2013-04-24 22:42:00,43.0,41.0,30.15,North,10,0.0,0.0,92,0.00,,,0.00,,2013-04-25 02:42:00,
2013-04-24 22:52:00,43.0,41.0,30.15,North,10,0.0,0.0,92,0.00,,,0.00,,2013-04-25 02:52:00,
2013-04-24 23:02:00,42.0,40.0,30.16,WSW,257,0.0,0.0,91,0.00,,,0.00,,2013-04-25 03:02:00,
2013-04-24 23:11:00,42.0,40.0,30.16,WSW,257,0.0,0.0,91,0.00,,,0.00,,2013-04-25 03:11:00,
2013-04-24 23:22:00,42.0,40.0,30.16,WSW,257,0.0,0.0,91,0.00,,,0.00,,2013-04-25 03:22:00,
2013-04-24 23:33:00,42.0,40.0,30.16,WSW,257,0.0,0.0,91,0.00,,,0.00,,2013-04-25 03:33:00,
2013-04-24 23:42:00,42.0,40.0,30.16,WSW,257,0.0,0.0,91,0.00,,,0.00,,2013-04-25 03:42:00,
2013-04-24 23:52:00,42.0,38.0,30.17,WNW,290,0.0,0.0,85,0.00,,,0.00,,2013-04-25 03:52:00,